This is the latest recevied weather packets stored in our database for station/object YC0ACE-13. If no packets are shown the sender has not sent any weather packets the latest 10 day(s).
| Time | Temp. | Humidity | Pressure | Rain* | Wind** | Luminosity | Snow |
|---|---|---|---|---|---|---|---|
| 1777771825 | 29.44° C | 73% | 1015.6 hPa | 0 mm | - | 359 W/m² | - |
| 1777771524 | 30° C | 72% | 1015.6 hPa | 0 mm | - | 342 W/m² | - |
| 1777771224 | 30° C | 74% | 1015.6 hPa | 0 mm | - | 314 W/m² | - |
| 1777770924 | 29.44° C | 76% | 1015.6 hPa | 0 mm | - | 316 W/m² | - |
| 1777770625 | 30° C | 74% | 1015.6 hPa | 0 mm | - | 282 W/m² | - |
| 1777770324 | 30° C | 76% | 1015.6 hPa | 0 mm | - | 279 W/m² | - |
| 1777770025 | 30° C | 77% | 1015.2 hPa | 0 mm | - | 245 W/m² | - |
| 1777769724 | 29.44° C | 78% | 1015.2 hPa | 0 mm | - | 238 W/m² | - |
| 1777769424 | 29.44° C | 80% | 1015.2 hPa | 0 mm | - | 193 W/m² | - |
| 1777769125 | 29.44° C | 79% | 1015.2 hPa | 0 mm | - | 195 W/m² | - |
| 1777768824 | 29.44° C | 78% | 1014.9 hPa | 0 mm | - | 179 W/m² | - |
| 1777768525 | 28.89° C | 80% | 1015.2 hPa | 0 mm | - | 168 W/m² | - |
| 1777768225 | 28.89° C | 80% | 1015.2 hPa | 0 mm | - | 166 W/m² | - |
| 1777767925 | 28.89° C | 80% | 1015.2 hPa | 0 mm | - | 150 W/m² | - |
| 1777767625 | 28.89° C | 80% | 1014.9 hPa | 0 mm | - | 139 W/m² | - |
| 1777767325 | 28.89° C | 80% | 1014.9 hPa | 0 mm | - | 127 W/m² | - |
| 1777767025 | 28.33° C | 82% | 1014.6 hPa | 0 mm | - | 119 W/m² | - |
| 1777766725 | 27.78° C | 82% | 1014.6 hPa | 0 mm | - | 105 W/m² | - |
| 1777766424 | 27.78° C | 83% | 1014.6 hPa | 0 mm | - | 97 W/m² | - |
| 1777766124 | 27.78° C | 84% | 1014.6 hPa | 0 mm | - | 87 W/m² | - |
| 1777765824 | 27.22° C | 85% | 1014.6 hPa | 0 mm | - | 73 W/m² | - |
| 1777765525 | 26.67° C | 87% | 1014.6 hPa | 0 mm | - | 62 W/m² | - |
| 1777765224 | 26.67° C | 87% | 1014.2 hPa | 0 mm | - | 55 W/m² | - |
| 1777764925 | 26.67° C | 88% | 1014.2 hPa | 0 mm | - | 48 W/m² | - |
| 1777764624 | 26.67° C | 89% | 1014.2 hPa | 0 mm | - | 42 W/m² | - |
* Rain latest hour (hover to see other rain measurements)
** Current wind speed in m/s (hover to see current wind gust speed)